Weather History for KBYY - February, 2013

Change the Weather History Date:

Wednesday, February 13, 2013

  Actual Average (KLBX) Record (KLBX)
Temperature  
Mean Temperature 54 °F -  
Max Temperature 63 °F 64 °F 79 °F (2009)
Min Temperature 43 °F 47 °F 27 °F (2014)
Degree Days  
Heating Degree Days 11    
Growing Degree Days 4 (Base 50)    
Moisture  
Dew Point 43 °F    
Average Humidity 70    
Maximum Humidity 100    
Minimum Humidity 43    
Precipitation  
Precipitation 0.01 in - - ()
Sea Level Pressure  
Sea Level Pressure 30.07 in    
Wind  
Wind Speed 8 mph (NNW)    
Max Wind Speed 17 mph    
Max Gust Speed 24 mph    
Visibility 10 miles    
Events Rain    
Averages and records for this station are not official NWS values.
T = Trace of Precipitation, MM = Missing Value Source: NWS Daily Summary

Daily Weather History Graph

Daily Weather History Graph

Search for Another Location

Airport or City:

Trip Planner

Search our weather history database for the weather conditions in past years. The results will help you decide how hot, cold, wet, or windy it might be!

Date:

Astronomy

Feb. 13, 2013 Rise Set
Actual Time 7:03 AM CST 6:12 PM CST
Civil Twilight 6:39 AM CST 6:36 PM CST
Nautical Twilight 6:11 AM CST 7:04 PM CST
Astronomical Twilight 5:43 AM CST 7:31 PM CST
Moon 8:55 AM CST (2/13) 9:51 PM CST (2/13)
Length of Visible Light 11h 57m
Length of Day
11h 08m
Waxing Crescent, 14% of the Moon is Illuminated
Feb 13
Waxing Crescent
Feb 17
First Quarter
Feb 25
Full
Mar 4
Last Quarter
Mar 11
New

Hourly Weather History & Observations

Time (CST) Temp. Windchill Dew Point Humidity Pressure Visibility Wind Dir Wind Speed Gust Speed Precip Events Conditions
12:15 AM 58.5 °F - 58.5 °F 100% 30.00 in 10.0 mi North 8.1 mph - N/A   Scattered Clouds
12:35 AM 58.1 °F - 55.9 °F 93% 30.01 in 10.0 mi North 4.6 mph - N/A   Scattered Clouds
12:55 AM 57.9 °F - 54.1 °F 87% 30.01 in 10.0 mi North 6.9 mph - N/A   Scattered Clouds
1:15 AM 58.3 °F - 53.6 °F 84% 30.02 in 10.0 mi North 6.9 mph - N/A   Overcast
1:35 AM 58.5 °F - 53.1 °F 82% 30.03 in 10.0 mi NNW 5.8 mph - N/A   Overcast
1:55 AM 58.3 °F - 52.9 °F 82% 30.03 in 10.0 mi North 8.1 mph - N/A   Overcast
2:15 AM 58.1 °F - 52.7 °F 82% 30.02 in 10.0 mi North 9.2 mph - N/A   Overcast
2:35 AM 57.4 °F - 51.1 °F 79% 30.04 in 10.0 mi NNW 10.4 mph - N/A   Overcast
2:55 AM 56.3 °F - 49.1 °F 77% 30.05 in 10.0 mi NNW 9.2 mph - N/A   Scattered Clouds
3:15 AM 55.2 °F - 49.5 °F 81% 30.01 in 10.0 mi North 10.4 mph - N/A Rain Rain
3:35 AM 53.8 °F - 49.6 °F 86% 30.04 in 10.0 mi North 6.9 mph - N/A Rain Light Rain
3:55 AM 53.2 °F - 49.3 °F 86% 30.05 in 10.0 mi North 4.6 mph - N/A Rain Light Rain
4:15 AM 52.9 °F - 49.6 °F 89% 30.06 in 10.0 mi Calm Calm - N/A Rain Light Rain
4:35 AM 52.5 °F - 49.5 °F 89% 30.06 in 10.0 mi North 10.4 mph - N/A   Overcast
4:55 AM 52.0 °F - 47.5 °F 85% 30.06 in 10.0 mi North 9.2 mph - N/A   Overcast
5:15 AM 51.3 °F - 46.8 °F 85% 30.08 in 10.0 mi NW 6.9 mph - N/A   Overcast
5:35 AM 50.9 °F - 45.9 °F 83% 30.07 in 10.0 mi NNW 10.4 mph - N/A Rain Light Rain
5:55 AM 50.0 °F - 44.4 °F 81% 30.07 in 10.0 mi NNW 11.5 mph 16.1 mph N/A   Mostly Cloudy
6:15 AM 49.5 °F - 44.1 °F 82% 30.08 in 10.0 mi NNW 9.2 mph - N/A Rain Light Rain
6:35 AM 48.6 °F - 43.5 °F 83% 30.08 in 10.0 mi NNW 15.0 mph 19.6 mph 0.01 in   Light Drizzle
6:55 AM 48.2 °F - 42.6 °F 81% 30.10 in 10.0 mi NNW 8.1 mph - 0.01 in   Mostly Cloudy
7:15 AM 47.5 °F - 42.3 °F 82% 30.08 in 10.0 mi NNW 10.4 mph - N/A   Light Drizzle
7:35 AM 47.1 °F - 42.4 °F 84% 30.09 in 10.0 mi NNW 10.4 mph - N/A Rain Light Rain
7:55 AM 47.1 °F - 42.3 °F 83% 30.09 in 10.0 mi North 10.4 mph - N/A   Overcast
8:15 AM 47.3 °F - 41.4 °F 80% 30.11 in 10.0 mi North 12.7 mph 18.4 mph N/A   Overcast
8:35 AM 47.3 °F - 40.6 °F 78% 30.11 in 10.0 mi NNW 12.7 mph 18.4 mph N/A   Mostly Cloudy
8:55 AM 47.3 °F - 41.0 °F 79% 30.11 in 10.0 mi NNW 10.4 mph - N/A Rain Light Rain
9:15 AM 47.3 °F - 41.2 °F 79% 30.13 in 10.0 mi North 9.2 mph - N/A   Scattered Clouds
9:35 AM 48.2 °F - 41.7 °F 78% 30.12 in 10.0 mi North 15.0 mph 20.7 mph N/A   Mostly Cloudy
9:55 AM 48.6 °F - 41.4 °F 76% 30.12 in 10.0 mi North 17.3 mph 24.2 mph N/A   Mostly Cloudy
10:15 AM 49.5 °F - 41.0 °F 73% 30.14 in 10.0 mi NNW 13.8 mph 18.4 mph N/A   Mostly Cloudy
10:35 AM 49.6 °F - 40.8 °F 72% 30.13 in 10.0 mi North 11.5 mph - N/A   Mostly Cloudy
10:55 AM 50.0 °F - 40.1 °F 69% 30.14 in 10.0 mi NNW 15.0 mph - N/A   Scattered Clouds
11:15 AM 51.1 °F - 40.5 °F 67% 30.14 in 10.0 mi NNW 10.4 mph - N/A   Mostly Cloudy
11:35 AM 51.4 °F - 40.5 °F 66% 30.14 in 10.0 mi NNW 9.2 mph - N/A   Mostly Cloudy
11:55 AM 51.8 °F - 40.5 °F 65% 30.14 in 10.0 mi NW 8.1 mph - N/A   Mostly Cloudy
12:15 PM 52.7 °F - 40.6 °F 64% 30.13 in 10.0 mi NNW 9.2 mph - N/A   Mostly Cloudy
12:35 PM 54.7 °F - 41.5 °F 61% 30.13 in 10.0 mi North 9.2 mph - N/A   Mostly Cloudy
12:55 PM 57.0 °F - 40.8 °F 55% 30.11 in 10.0 mi NNE 10.4 mph 18.4 mph N/A   Clear
1:15 PM 58.1 °F - 40.6 °F 52% 30.10 in 10.0 mi North 4.6 mph - N/A   Clear
1:35 PM 59.2 °F - 40.8 °F 51% 30.08 in 10.0 mi NW 8.1 mph - N/A   Clear
1:55 PM 59.9 °F - 40.5 °F 49% 30.07 in 10.0 mi NW 8.1 mph - N/A   Clear
2:15 PM 61.0 °F - 40.6 °F 47% 30.06 in 10.0 mi NNW 12.7 mph - N/A   Clear
2:35 PM 61.5 °F - 40.5 °F 46% 30.06 in 10.0 mi North 10.4 mph - N/A   Clear
2:55 PM 62.2 °F - 40.8 °F 45% 30.06 in 10.0 mi NNW 5.8 mph - N/A   Clear
3:15 PM 63.0 °F - 40.6 °F 44% 30.05 in 10.0 mi North 10.4 mph - N/A   Clear
3:35 PM 62.8 °F - 40.6 °F 44% 30.04 in 10.0 mi NW 9.2 mph - N/A   Clear
3:55 PM 62.6 °F - 39.9 °F 43% 30.04 in 10.0 mi NNW 10.4 mph - N/A   Clear
4:15 PM 62.6 °F - 40.5 °F 44% 30.04 in 10.0 mi NW 8.1 mph - N/A   Clear
4:35 PM 62.2 °F - 39.7 °F 44% 30.04 in 10.0 mi NNW 5.8 mph - N/A   Clear
4:55 PM 62.1 °F - 39.6 °F 44% 30.04 in 10.0 mi North 10.4 mph - N/A   Clear
5:15 PM 61.5 °F - 39.7 °F 45% 30.04 in 10.0 mi North 9.2 mph - N/A   Clear
5:35 PM 60.6 °F - 39.7 °F 46% 30.04 in 10.0 mi NNW 10.4 mph - N/A   Clear
5:55 PM 59.4 °F - 40.1 °F 49% 30.04 in 10.0 mi NNW 5.8 mph - N/A   Clear
6:15 PM 57.4 °F - 40.3 °F 53% 30.05 in 10.0 mi NNW 4.6 mph - N/A   Clear
6:35 PM 54.7 °F - 40.3 °F 58% 30.04 in 10.0 mi North 5.8 mph - N/A   Clear
6:55 PM 53.4 °F - 40.1 °F 61% 30.05 in 10.0 mi NNW 4.6 mph - N/A   Clear
7:15 PM 52.7 °F - 40.3 °F 63% 30.05 in 10.0 mi North 4.6 mph - N/A   Clear
7:35 PM 51.1 °F - 40.5 °F 67% 30.05 in 10.0 mi North 4.6 mph - N/A   Clear
7:55 PM 50.7 °F - 40.3 °F 67% 30.06 in 10.0 mi North 4.6 mph - N/A   Clear
8:15 PM 50.4 °F - 40.3 °F 68% 30.06 in 10.0 mi North 4.6 mph - N/A   Clear
8:35 PM 49.8 °F - 40.1 °F 69% 30.07 in 10.0 mi North 5.8 mph - N/A   Clear
8:55 PM 48.9 °F - 40.1 °F 72% 30.07 in 10.0 mi North 5.8 mph - N/A   Clear
9:15 PM 48.4 °F - 40.1 °F 73% 30.07 in 10.0 mi North 5.8 mph - N/A   Clear
9:35 PM 48.2 °F - 39.7 °F 73% 30.08 in 10.0 mi North 4.6 mph - N/A   Clear
9:55 PM 47.7 °F - 39.9 °F 75% 30.09 in 10.0 mi North 4.6 mph - N/A   Clear
10:15 PM 47.7 °F - 39.7 °F 74% 30.10 in 10.0 mi North 4.6 mph - N/A   Clear
10:35 PM 47.1 °F - 39.4 °F 74% 30.10 in 10.0 mi Calm Calm - N/A   Clear
10:55 PM 46.0 °F 44.8 °F 39.7 °F 79% 30.11 in 10.0 mi North 3.5 mph - N/A   Clear
11:15 PM 47.5 °F - 39.7 °F 75% 30.11 in 10.0 mi NNW 3.5 mph - N/A   Clear
11:35 PM 45.5 °F - 39.0 °F 78% 30.11 in 10.0 mi Calm Calm - N/A   Clear
11:55 PM 43.9 °F - 39.4 °F 84% 30.11 in 10.0 mi Calm Calm - N/A   Clear